Voltar ao catálogo

CAS500-1

AtivoCiênciaSSO
NORAD 47932·PAYLOAD·🇰🇷 South Korea

Lançado Mar 22, 2021 de Baikonur Cosmodrome

Loading…

Próximas Passagens (próximas 24 horas)

TLE

AtualizadoSource: Space-Track

Época: Sep 14, 2026, 21:55 UTC

1 47932U 21022A   26257.91361090  .00005586  00000-0  26083-3 0  9999
2 47932  97.3759 151.2832 0004706 354.6758   5.4427 15.20207170304390

Acompanhe CAS500-1 em tempo real com AllMySat

Download on the App Store